Gallivare, Sweden

4:57 AM CEST on May 22, 2018 (GMT +0200)
Gallivare

Weather History for ESNG - April, 2013

Change the Weather History Date:

Friday, April 26, 2013

  Actual Average Record
Temperature  
Mean Temperature 32 °F -  
Max Temperature 41 °F - - ()
Min Temperature 24 °F - - ()
Degree Days  
Heating Degree Days 32    
Moisture  
Dew Point 28 °F    
Average Humidity 86    
Maximum Humidity 100    
Minimum Humidity 65    
Precipitation  
Precipitation 0.00 in - - ()
Sea Level Pressure  
Sea Level Pressure 29.59 in    
Wind  
Wind Speed 3 mph ()    
Max Wind Speed 9 mph    
Max Gust Speed -    
Visibility 5.4 miles    
Events Rain , Snow    
T = Trace of Precipitation, MM = Missing Value Source: Averaged Metar Reports

Daily Weather History Graph

Daily Weather History Graph

Search for Another Location

Airport or City:

Astronomy

Apr. 26, 2013 Rise Set
Actual Time 4:05 AM CEST 9:08 PM CEST
Civil Twilight 2:43 AM CEST 10:31 PM CEST
Nautical Twilight Sun does not set Sun does not set
Astronomical Twilight Sun does not set Sun does not set
Moon 10:51 PM CEST (4/26) 4:02 AM CEST (4/26)
Length of Visible Light 19h 48m
Length of Day
17h 03m
Full, 100% of the Moon is Illuminated
Apr 26
Full
May 2
Last Quarter
May 10
New
May 18
First Quarter
May 25
Full

Hourly Weather History & Observations

Time (CEST) Temp. Windchill Dew Point Humidity Pressure Visibility Wind Dir Wind Speed Gust Speed Precip Events Conditions
12:20 AM 28.4 °F - 23.0 °F 80% 29.62 in 6.2 mi Calm Calm - N/A   Unknown
12:50 AM 28.4 °F - 23.0 °F 80% 29.62 in 6.2 mi West 2.3 mph - N/A   Unknown
1:20 AM 26.6 °F - 23.0 °F 86% 29.62 in 6.2 mi North 2.3 mph - N/A   Unknown
1:50 AM 26.6 °F - 23.0 °F 86% 29.62 in 6.2 mi Variable 2.3 mph - N/A   Unknown
2:20 AM 26.6 °F 22.6 °F 23.0 °F 86% 29.62 in 6.2 mi WNW 3.5 mph - N/A   Unknown
2:50 AM 26.6 °F 22.6 °F 23.0 °F 86% 29.59 in 6.2 mi NW 3.5 mph - N/A   Unknown
3:20 AM 26.6 °F 20.0 °F 23.0 °F 86% 29.59 in 6.2 mi NW 5.8 mph - N/A   Unknown
3:50 AM 24.8 °F - 23.0 °F 93% 29.59 in 6.2 mi Variable 2.3 mph - N/A   Unknown
4:20 AM 26.6 °F - 23.0 °F 86% 29.59 in 6.2 mi Variable 2.3 mph - N/A   Unknown
4:50 AM 24.8 °F - 23.0 °F 93% 29.59 in 6.2 mi WNW 2.3 mph - N/A   Scattered Clouds
5:20 AM 24.8 °F 20.5 °F 23.0 °F 93% 29.59 in 6.2 mi WNW 3.5 mph - N/A   Scattered Clouds
5:50 AM 26.6 °F 21.2 °F 23.0 °F 86% 29.59 in - NW 4.6 mph - N/A   Clear
6:20 AM 28.4 °F 24.6 °F 23.0 °F 80% 29.59 in - NNW 3.5 mph - N/A   Clear
6:50 AM 30.2 °F 25.4 °F 24.8 °F 80% 29.59 in - NNW 4.6 mph - N/A   Clear
7:20 AM 32.0 °F - 24.8 °F 75% 29.59 in - NNW 2.3 mph - N/A   Clear
7:50 AM 32.0 °F - 24.8 °F 75% 29.59 in - NNW 2.3 mph - N/A   Clear
8:20 AM 33.8 °F - 24.8 °F 70% 29.59 in 6.2 mi West 1.2 mph - N/A Snow Light Snow
8:50 AM 33.8 °F - 28.4 °F 81% 29.59 in 6.2 mi Calm Calm - N/A Snow Light Snow
9:20 AM 35.6 °F - 30.2 °F 81% 29.59 in 6.2 mi Variable 2.3 mph - N/A Rain Light Rain
9:50 AM 37.4 °F - 30.2 °F 75% 29.59 in 6.2 mi Variable 1.2 mph - N/A   Partly Cloudy
10:20 AM 41.0 °F - 30.2 °F 65% 29.56 in 6.2 mi Variable 2.3 mph - N/A   Scattered Clouds
10:50 AM 39.2 °F - 28.4 °F 65% 29.56 in 6.2 mi Variable 2.3 mph - N/A   Mostly Cloudy
11:20 AM 39.2 °F 35.9 °F 28.4 °F 65% 29.56 in 6.2 mi South 4.6 mph - N/A   Mostly Cloudy
11:50 AM 37.4 °F 31.4 °F 30.2 °F 75% 29.56 in 6.2 mi NNW 8.1 mph - N/A   Scattered Clouds
12:20 PM 35.6 °F 28.6 °F 32.0 °F 87% 29.56 in 6.2 mi North 9.2 mph - N/A   Mostly Cloudy
12:50 PM 33.8 °F 28.6 °F 32.0 °F 93% 29.59 in 3.1 mi NNW 5.8 mph - N/A Rain , Snow Rain
1:20 PM 33.8 °F 28.6 °F 32.0 °F 93% 29.59 in 3.1 mi WNW 5.8 mph - N/A Snow Light Snow
1:50 PM 32.0 °F 26.4 °F 32.0 °F 100% 29.59 in 0.2 mi NNW 5.8 mph - N/A Snow Heavy Snow
2:20 PM 32.0 °F 26.4 °F 32.0 °F 100% 29.59 in 0.3 mi ENE 5.8 mph - N/A Snow Heavy Snow
2:50 PM 33.8 °F 29.6 °F 33.8 °F 100% 29.59 in 0.6 mi NNE 4.6 mph - N/A Snow Snow
3:20 PM 35.6 °F 30.7 °F 33.8 °F 93% 29.59 in 1.1 mi NNE 5.8 mph - N/A Snow Snow
3:50 PM 33.8 °F 27.7 °F 32.0 °F 93% 29.59 in - NE 6.9 mph - N/A Rain , Snow Rain
4:20 PM 33.8 °F 28.6 °F 32.0 °F 93% 29.59 in 2.5 mi NNE 5.8 mph - N/A Rain , Snow Light Rain
4:50 PM 33.8 °F 29.6 °F 32.0 °F 93% 29.59 in 3.7 mi NNE 4.6 mph - N/A Rain Light Rain
5:20 PM 33.8 °F - 32.0 °F 93% 29.59 in 6.2 mi Variable 2.3 mph - N/A   Mostly Cloudy
5:50 PM 33.8 °F - 32.0 °F 93% 29.59 in 6.2 mi Variable 2.3 mph - N/A Rain Light Rain
6:20 PM 33.8 °F 30.8 °F 32.0 °F 93% 29.59 in 6.2 mi WSW 3.5 mph - N/A Snow Light Snow
6:50 PM 33.8 °F 28.6 °F 33.8 °F 100% 29.59 in 6.2 mi NW 5.8 mph - N/A Snow Light Snow
7:20 PM 33.8 °F 27.7 °F 32.0 °F 93% 29.59 in 6.2 mi NNW 6.9 mph - N/A   Scattered Clouds
7:50 PM 33.8 °F 28.6 °F 32.0 °F 93% 29.59 in 6.2 mi West 5.8 mph - N/A   Unknown
8:20 PM 33.8 °F 27.7 °F 30.2 °F 87% 29.59 in 6.2 mi West 6.9 mph - N/A   Partly Cloudy
8:50 PM 33.8 °F 27.7 °F 30.2 °F 87% 29.59 in 6.2 mi West 6.9 mph - N/A   Mostly Cloudy
9:20 PM 32.0 °F 28.7 °F 30.2 °F 93% 29.59 in 6.2 mi NNW 3.5 mph - N/A   Mostly Cloudy
9:50 PM 32.0 °F 26.4 °F 30.2 °F 93% 29.59 in 6.2 mi NW 5.8 mph - N/A   Mostly Cloudy
10:20 PM 32.0 °F 25.6 °F 30.2 °F 93% 29.59 in 6.2 mi North 6.9 mph - N/A   Partly Cloudy
10:50 PM 33.8 °F 27.0 °F 24.8 °F 70% 29.59 in 6.2 mi North 8.1 mph - N/A Snow Snow Grains
11:20 PM 33.8 °F 28.6 °F 26.6 °F 75% 29.59 in 6.2 mi NNW 5.8 mph - N/A   Unknown
11:50 PM 32.0 °F 26.4 °F 28.4 °F 87% 29.59 in 6.2 mi NNW 5.8 mph - N/A   Unknown